,,PA_Meas_PMT16A,,PR_Meas_QMR101_102,,RH_Meas_QMH101,,SR_Meas_QMS101,,TA_Meas_QMH101,,GenWind,,GenWind,
time,status,PA,status,PR,status,RH,status,SR,status,TA,status,DirAvg,status,SpdAvg,
2014-05-24, 00:00:04,VALID,917.877,VALID,0,VALID,95.5519,VALID,0,VALID,21.0876,VALID,149,VALID,1.38906,
2014-05-24, 00:01:05,VALID,917.89,VALID,0,VALID,95.468,VALID,0.107441,VALID,21.1055,VALID,149,VALID,1.28437,
2014-05-24, 00:02:05,VALID,917.872,VALID,0,VALID,95.3918,VALID,0.107441,VALID,21.1071,VALID,136,VALID,1.16641,
2014-05-24, 00:03:05,VALID,917.886,VALID,0,VALID,95.3384,VALID,0.107441,VALID,21.1266,VALID,143,VALID,1.32734,
2014-05-24, 00:04:05,VALID,917.858,VALID,0,VALID,95.2775,VALID,0,VALID,21.086,VALID,164,VALID,1.44258,
2014-05-24, 00:05:05,VALID,917.836,VALID,0,VALID,95.2393,VALID,0,VALID,21.0665,VALID,159,VALID,1.06797,
2014-05-24, 00:06:05,VALID,917.838,VALID,0,VALID,95.2165,VALID,0.107441,VALID,21.0275,VALID,153,VALID,1.25703,
2014-05-24, 00:07:05,VALID,917.841,VALID,0,VALID,95.2088,VALID,0.107441,VALID,21.0291,VALID,156,VALID,1.19141,
2014-05-24, 00:08:05,VALID,917.83,VALID,0,VALID,95.2317,VALID,0.107441,VALID,20.9885,VALID,147,VALID,1.28867,
2014-05-24, 00:09:05,VALID,917.812,VALID,0,VALID,95.2927,VALID,0,VALID,20.9706,VALID,156,VALID,1.38867,
2014-05-24, 00:10:05,VALID,917.805,VALID,0,VALID,95.3461,VALID,0,VALID,20.93,VALID,151,VALID,0.932422,
2014-05-24, 00:11:05,VALID,917.761,VALID,0,VALID,95.4071,VALID,0.107441,VALID,20.912,VALID,146,VALID,1.19062,
2014-05-24, 00:12:05,VALID,917.777,VALID,0,VALID,95.4528,VALID,0,VALID,20.8925,VALID,151,VALID,1.10703,
2014-05-24, 00:13:05,VALID,917.768,VALID,0,VALID,95.529,VALID,0.107441,VALID,20.8714,VALID,151,VALID,0.739453,
2014-05-24, 00:14:05,VALID,917.823,VALID,0,VALID,95.5595,VALID,0,VALID,20.8714,VALID,158,VALID,0.703516,
2014-05-24, 00:15:05,VALID,917.776,VALID,0,VALID,95.6053,VALID,0,VALID,20.8714,VALID,158,VALID,1.16875,
2014-05-24, 00:16:05,VALID,917.764,VALID,0,VALID,95.6357,VALID,0,VALID,20.93,VALID,157,VALID,1.0582,
2014-05-24, 00:17:05,VALID,917.74,VALID,0,VALID,95.6129,VALID,0.107441,VALID,20.9885,VALID,156,VALID,1.05781,
2014-05-24, 00:18:05,VALID,917.752,VALID,0,VALID,95.5443,VALID,0.107441,VALID,21.0275,VALID,135,VALID,1.08711,
2014-05-24, 00:19:05,VALID,917.734,VALID,0,VALID,95.4299,VALID,0,VALID,21.086,VALID,136,VALID,0.696094,
2014-05-24, 00:20:05,VALID,917.729,VALID,0,VALID,95.3079,VALID,0,VALID,21.125,VALID,151,VALID,0.855469,
2014-05-24, 00:21:05,VALID,917.694,VALID,0,VALID,95.125,VALID,0,VALID,21.1852,VALID,134,VALID,1.10156,
2014-05-24, 00:22:05,VALID,917.7,VALID,0,VALID,94.8963,VALID,0,VALID,21.2437,VALID,134,VALID,0.914453,
2014-05-24, 00:23:05,VALID,917.684,VALID,0,VALID,94.5761,VALID,0,VALID,21.2811,VALID,135,VALID,0.961328,
2014-05-24, 00:24:05,VALID,917.655,VALID,0,VALID,93.9967,VALID,0,VALID,21.3412,VALID,132,VALID,0.723047,
2014-05-24, 00:25:05,VALID,917.693,VALID,0,VALID,93.4707,VALID,0.107441,VALID,21.3396,VALID,133,VALID,0.608594,
2014-05-24, 00:26:05,VALID,917.698,VALID,0,VALID,93.0819,VALID,0.107441,VALID,21.3803,VALID,135,VALID,0.647656,
2014-05-24, 00:27:05,VALID,917.678,VALID,0,VALID,92.7389,VALID,0.107441,VALID,21.3591,VALID,135,VALID,0.820313,
2014-05-24, 00:28:05,VALID,917.699,VALID,0,VALID,92.5864,VALID,0,VALID,21.3608,VALID,134,VALID,0.595703,
2014-05-24, 00:29:05,VALID,917.71,VALID,0,VALID,92.472,VALID,0,VALID,21.3412,VALID,134,VALID,0.799219,
2014-05-24, 00:30:05,VALID,917.701,VALID,0,VALID,92.4949,VALID,0,VALID,21.2811,VALID,133,VALID,0.801953,
2014-05-24, 00:31:05,VALID,917.701,VALID,0,VALID,92.6093,VALID,0,VALID,21.2811,VALID,130,VALID,1.03437,
2014-05-24, 00:32:05,VALID,917.689,VALID,0,VALID,92.7084,VALID,0.107441,VALID,21.2811,VALID,130,VALID,0.939844,
2014-05-24, 00:33:05,VALID,917.667,VALID,0,VALID,92.655,VALID,0,VALID,21.2811,VALID,130,VALID,0.901172,
2014-05-24, 00:34:05,VALID,917.674,VALID,0,VALID,92.4873,VALID,0,VALID,21.3201,VALID,130,VALID,1.02422,
2014-05-24, 00:35:05,VALID,917.694,VALID,0,VALID,92.19,VALID,0.107441,VALID,21.3591,VALID,130,VALID,1.12109,
2014-05-24, 00:36:05,VALID,917.65,VALID,0,VALID,91.8698,VALID,0,VALID,21.4388,VALID,119,VALID,1.29648,
2014-05-24, 00:37:05,VALID,917.663,VALID,0,VALID,91.4124,VALID,0,VALID,21.4973,VALID,118,VALID,1.42891,
2014-05-24, 00:38:05,VALID,917.635,VALID,0,VALID,90.8101,VALID,0,VALID,21.5949,VALID,114,VALID,1.67148,
2014-05-24, 00:39:05,VALID,917.6,VALID,0,VALID,90.124,VALID,0,VALID,21.712,VALID,127,VALID,1.74023,
2014-05-24, 00:40:05,VALID,917.599,VALID,0,VALID,89.7733,VALID,0,VALID,21.7315,VALID,121,VALID,1.62031,
2014-05-24, 00:41:05,VALID,917.553,VALID,0,VALID,89.6819,VALID,0,VALID,21.712,VALID,126,VALID,1.99727,
2014-05-24, 00:42:05,VALID,917.52,VALID,0,VALID,89.781,VALID,0,VALID,21.7136,VALID,126,VALID,1.84297,
2014-05-24, 00:43:05,VALID,917.501,VALID,0,VALID,89.8801,VALID,0,VALID,21.712,VALID,136,VALID,1.9332,
2014-05-24, 00:44:05,VALID,917.487,VALID,0,VALID,90.063,VALID,0,VALID,21.6534,VALID,139,VALID,1.66523,
2014-05-24, 00:45:05,VALID,917.477,VALID,0,VALID,90.1088,VALID,0,VALID,21.6534,VALID,131,VALID,1.26016,
2014-05-24, 00:46:05,VALID,917.464,VALID,0,VALID,90.0935,VALID,0,VALID,21.6534,VALID,152,VALID,1.54336,
2014-05-24, 00:47:05,VALID,917.497,VALID,0,VALID,90.0325,VALID,0,VALID,21.6746,VALID,137,VALID,1.20938,
2014-05-24, 00:48:05,VALID,917.478,VALID,0,VALID,90.0249,VALID,0,VALID,21.6534,VALID,147,VALID,1.10234,
2014-05-24, 00:49:05,VALID,917.459,VALID,0,VALID,90.2536,VALID,0,VALID,21.6356,VALID,173,VALID,0.814453,
2014-05-24, 00:50:05,VALID,917.485,VALID,0,VALID,90.6577,VALID,0,VALID,21.5152,VALID,161,VALID,1.54141,
2014-05-24, 00:51:05,VALID,917.482,VALID,0,VALID,91.2294,VALID,0,VALID,21.3998,VALID,162,VALID,0.467969,
2014-05-24, 00:52:05,VALID,917.473,VALID,0,VALID,91.8012,VALID,0,VALID,21.2827,VALID,167,VALID,0.823047,
2014-05-24, 00:53:05,VALID,917.474,VALID,0,VALID,92.2891,VALID,0,VALID,21.2063,VALID,151,VALID,1.13906,
2014-05-24, 00:54:05,VALID,917.468,VALID,0,VALID,92.8227,VALID,0,VALID,21.1087,VALID,177,VALID,1.11172,
2014-05-24, 00:55:05,VALID,917.481,VALID,0,VALID,93.3106,VALID,0,VALID,21.0096,VALID,140,VALID,1.14648,
2014-05-24, 00:56:05,VALID,917.489,VALID,0,VALID,93.7223,VALID,0,VALID,20.9706,VALID,148,VALID,1.32852,
2014-05-24, 00:57:05,VALID,917.447,VALID,0,VALID,94.2559,VALID,0,VALID,20.9511,VALID,149,VALID,1.34844,
2014-05-24, 00:58:05,VALID,917.464,VALID,0,VALID,94.5456,VALID,0,VALID,20.9901,VALID,140,VALID,1.29023,
2014-05-24, 00:59:05,VALID,917.451,VALID,0,VALID,94.5532,VALID,0,VALID,20.9706,VALID,143,VALID,1.10352,
2014-05-24, 01:00:05,VALID,917.46,VALID,0,VALID,94.6066,VALID,0,VALID,20.9511,VALID,142,VALID,1.01211,
2014-05-24, 01:01:05,VALID,917.457,VALID,0,VALID,94.6066,VALID,0,VALID,20.9706,VALID,144,VALID,0.989453,
2014-05-24, 01:02:05,VALID,917.469,VALID,0,VALID,94.6142,VALID,0,VALID,21.0096,VALID,139,VALID,0.687891,
2014-05-24, 01:03:05,VALID,917.458,VALID,0,VALID,94.5532,VALID,0,VALID,21.0486,VALID,139,VALID,0.323828,
2014-05-24, 01:04:05,VALID,917.454,VALID,0,VALID,94.3931,VALID,0,VALID,21.0681,VALID,139,VALID,0.3125,
2014-05-24, 01:05:05,VALID,917.46,VALID,0,VALID,94.2254,VALID,0,VALID,21.0876,VALID,165,VALID,0.288672,
2014-05-24, 01:06:05,VALID,917.484,VALID,0,VALID,94.073,VALID,0,VALID,21.0876,VALID,165,VALID,0.8125,
2014-05-24, 01:07:05,VALID,917.48,VALID,0,VALID,93.8519,VALID,0,VALID,21.0681,VALID,165,VALID,0.738672,
2014-05-24, 01:08:05,VALID,917.477,VALID,0,VALID,93.7299,VALID,0,VALID,21.0681,VALID,163,VALID,0.991797,
2014-05-24, 01:09:05,VALID,917.447,VALID,0,VALID,93.6613,VALID,0,VALID,21.0681,VALID,164,VALID,0.886719,
2014-05-24, 01:10:05,VALID,917.464,VALID,0,VALID,93.646,VALID,0,VALID,21.0876,VALID,162,VALID,1.20313,
2014-05-24, 01:11:05,VALID,917.471,VALID,0,VALID,93.5317,VALID,0,VALID,21.0697,VALID,158,VALID,1.15234,
2014-05-24, 01:12:05,VALID,917.436,VALID,0,VALID,93.4783,VALID,0,VALID,21.0697,VALID,150,VALID,1.64102,
2014-05-24, 01:13:05,VALID,917.441,VALID,0,VALID,93.4783,VALID,0,VALID,21.0681,VALID,145,VALID,1.26406,
2014-05-24, 01:14:05,VALID,917.447,VALID,0,VALID,93.3792,VALID,0,VALID,21.1087,VALID,147,VALID,1.22344,
2014-05-24, 01:15:05,VALID,917.472,VALID,0,VALID,93.2268,VALID,0,VALID,21.1461,VALID,143,VALID,1.55859,
2014-05-24, 01:16:05,VALID,917.459,VALID,0,VALID,92.9142,VALID,0,VALID,21.2063,VALID,142,VALID,1.33281,
2014-05-24, 01:17:05,VALID,917.483,VALID,0,VALID,92.777,VALID,0,VALID,21.2047,VALID,147,VALID,1.98555,
2014-05-24, 01:18:05,VALID,917.445,VALID,0,VALID,92.5711,VALID,0,VALID,21.2242,VALID,149,VALID,1.37852,
2014-05-24, 01:19:05,VALID,917.434,VALID,0,VALID,92.4568,VALID,0,VALID,21.2258,VALID,134,VALID,1.46758,
2014-05-24, 01:20:05,VALID,917.438,VALID,0,VALID,92.4415,VALID,0,VALID,21.2258,VALID,136,VALID,1.2625,
2014-05-24, 01:21:05,VALID,917.435,VALID,0,VALID,92.4797,VALID,0,VALID,21.2047,VALID,138,VALID,1.69766,
2014-05-24, 01:22:05,VALID,917.428,VALID,0,VALID,92.5254,VALID,0,VALID,21.1852,VALID,159,VALID,1.04688,
2014-05-24, 01:23:05,VALID,917.43,VALID,0,VALID,92.5483,VALID,0,VALID,21.1657,VALID,138,VALID,1.15469,
2014-05-24, 01:24:05,VALID,917.415,VALID,0,VALID,92.5406,VALID,0,VALID,21.1461,VALID,129,VALID,1.23203,
2014-05-24, 01:25:05,VALID,917.398,VALID,0,VALID,92.594,VALID,0,VALID,21.1266,VALID,137,VALID,1.04727,
2014-05-24, 01:26:05,VALID,917.365,VALID,0,VALID,92.6169,VALID,0,VALID,21.1282,VALID,137,VALID,0.990234,
2014-05-24, 01:27:05,VALID,917.383,VALID,0,VALID,92.6474,VALID,0,VALID,21.1282,VALID,139,VALID,1.04766,
2014-05-24, 01:28:05,VALID,917.359,VALID,0,VALID,92.7084,VALID,0,VALID,21.1087,VALID,143,VALID,1.35156,
2014-05-24, 01:29:05,VALID,917.359,VALID,0,VALID,92.7617,VALID,0,VALID,21.0892,VALID,144,VALID,1.59219,
2014-05-24, 01:30:05,VALID,917.36,VALID,0,VALID,92.7846,VALID,0,VALID,21.1087,VALID,167,VALID,0.860156,
2014-05-24, 01:31:05,VALID,917.379,VALID,0,VALID,92.7617,VALID,0,VALID,21.0486,VALID,153,VALID,0.975781,
2014-05-24, 01:32:05,VALID,917.41,VALID,0,VALID,92.8151,VALID,0,VALID,21.0291,VALID,137,VALID,0.904688,
2014-05-24, 01:33:05,VALID,917.387,VALID,0,VALID,92.9676,VALID,0,VALID,20.9901,VALID,143,VALID,1.20234,
2014-05-24, 01:34:05,VALID,917.415,VALID,0,VALID,93.0743,VALID,0,VALID,21.0112,VALID,151,VALID,0.784766,
2014-05-24, 01:35:05,VALID,917.359,VALID,0,VALID,93.1353,VALID,0,VALID,20.9917,VALID,151,VALID,0.892187,
2014-05-24, 01:36:05,VALID,917.354,VALID,0,VALID,93.181,VALID,0,VALID,20.9316,VALID,151,VALID,1.11641,
2014-05-24, 01:37:05,VALID,917.321,VALID,0,VALID,93.1963,VALID,0,VALID,20.912,VALID,141,VALID,1.25508,
2014-05-24, 01:38:05,VALID,917.312,VALID,0,VALID,93.2572,VALID,0,VALID,20.9316,VALID,144,VALID,1.16914,
2014-05-24, 01:39:05,VALID,917.257,VALID,0,VALID,93.12,VALID,0,VALID,20.9511,VALID,143,VALID,1.08789,
2014-05-24, 01:40:05,VALID,917.208,VALID,0,VALID,93.0209,VALID,0,VALID,20.9511,VALID,140,VALID,1.49961,
2014-05-24, 01:41:05,VALID,917.196,VALID,0,VALID,92.8913,VALID,0,VALID,20.9706,VALID,131,VALID,1.1957,
2014-05-24, 01:42:05,VALID,917.174,VALID,0,VALID,92.8151,VALID,0,VALID,20.9706,VALID,146,VALID,1.525,
2014-05-24, 01:43:05,VALID,917.15,VALID,0,VALID,92.7617,VALID,0,VALID,20.9917,VALID,146,VALID,1.75391,
2014-05-24, 01:44:05,VALID,917.157,VALID,0,VALID,92.6626,VALID,0,VALID,20.9901,VALID,141,VALID,1.49102,
2014-05-24, 01:45:05,VALID,917.124,VALID,0,VALID,92.5483,VALID,0,VALID,21.0096,VALID,150,VALID,1.37344,
2014-05-24, 01:46:05,VALID,917.133,VALID,0,VALID,92.4568,VALID,0,VALID,21.0307,VALID,147,VALID,1.57148,
2014-05-24, 01:47:05,VALID,917.104,VALID,0,VALID,92.4034,VALID,0,VALID,21.0486,VALID,147,VALID,1.33086,
2014-05-24, 01:48:05,VALID,917.118,VALID,0,VALID,92.2738,VALID,0,VALID,21.0486,VALID,124,VALID,0.810156,
2014-05-24, 01:49:05,VALID,917.099,VALID,0,VALID,92.19,VALID,0,VALID,21.0502,VALID,132,VALID,0.644141,
2014-05-24, 01:50:05,VALID,917.106,VALID,0,VALID,92.2052,VALID,0,VALID,21.0096,VALID,131,VALID,0.993359,
2014-05-24, 01:51:05,VALID,917.101,VALID,0,VALID,92.2205,VALID,0,VALID,21.0112,VALID,133,VALID,0.997266,
2014-05-24, 01:52:05,VALID,917.072,VALID,0,VALID,92.2281,VALID,0,VALID,20.9917,VALID,138,VALID,0.722266,
2014-05-24, 01:53:05,VALID,917.069,VALID,0,VALID,92.1976,VALID,0,VALID,20.9511,VALID,135,VALID,1.01719,
2014-05-24, 01:54:05,VALID,917.072,VALID,0,VALID,92.2738,VALID,0,VALID,20.9316,VALID,148,VALID,1.16641,
2014-05-24, 01:55:05,VALID,917.052,VALID,0,VALID,92.3577,VALID,0,VALID,20.9527,VALID,149,VALID,0.86875,
2014-05-24, 01:56:05,VALID,917.063,VALID,0,VALID,92.4492,VALID,0,VALID,20.9527,VALID,152,VALID,1.08477,
2014-05-24, 01:57:05,VALID,917.061,VALID,0,VALID,92.4415,VALID,0,VALID,20.9331,VALID,144,VALID,1.02578,
2014-05-24, 01:58:05,VALID,917.02,VALID,0,VALID,92.533,VALID,0,VALID,20.9136,VALID,160,VALID,0.782422,
2014-05-24, 01:59:05,VALID,917.007,VALID,0,VALID,92.6855,VALID,0,VALID,20.9136,VALID,160,VALID,1.1543,
2014-05-24, 02:00:05,VALID,917.027,VALID,0,VALID,92.6779,VALID,0,VALID,20.9331,VALID,155,VALID,0.900391,
2014-05-24, 02:01:05,VALID,917.034,VALID,0,VALID,92.716,VALID,0,VALID,20.9331,VALID,147,VALID,0.998438,
2014-05-24, 02:02:05,VALID,917.02,VALID,0,VALID,92.7084,VALID,0,VALID,20.9316,VALID,147,VALID,0.673047,
2014-05-24, 02:03:05,VALID,917.006,VALID,0,VALID,92.7007,VALID,0,VALID,20.9331,VALID,147,VALID,0.732031,
2014-05-24, 02:04:05,VALID,917.012,VALID,0,VALID,92.5178,VALID,0,VALID,20.9136,VALID,142,VALID,0.541797,
2014-05-24, 02:05:05,VALID,916.992,VALID,0,VALID,92.5025,VALID,0,VALID,20.8941,VALID,142,VALID,0.713672,
2014-05-24, 02:06:05,VALID,916.945,VALID,0,VALID,92.4415,VALID,0.107441,VALID,20.8535,VALID,120,VALID,0.757813,
2014-05-24, 02:07:05,VALID,916.935,VALID,0,VALID,92.6397,VALID,0,VALID,20.834,VALID,139,VALID,1.10312,
2014-05-24, 02:08:05,VALID,916.929,VALID,0,VALID,92.594,VALID,0.107441,VALID,20.873,VALID,120,VALID,0.765625,
2014-05-24, 02:09:05,VALID,916.916,VALID,0,VALID,92.6931,VALID,0,VALID,20.912,VALID,141,VALID,1.50195,
2014-05-24, 02:10:05,VALID,916.9,VALID,0,VALID,92.5406,VALID,0,VALID,21.0486,VALID,149,VALID,1.82383,
2014-05-24, 02:11:05,VALID,916.883,VALID,0,VALID,92.068,VALID,0,VALID,21.1266,VALID,138,VALID,0.703516,
2014-05-24, 02:12:05,VALID,916.876,VALID,0,VALID,91.6868,VALID,0,VALID,21.1657,VALID,110,VALID,0.940234,
2014-05-24, 02:13:05,VALID,916.853,VALID,0,VALID,91.4429,VALID,0.107441,VALID,21.2047,VALID,126,VALID,1.84219,
2014-05-24, 02:14:05,VALID,916.814,VALID,0,VALID,91.2218,VALID,0,VALID,21.2827,VALID,140,VALID,2.14219,
2014-05-24, 02:15:05,VALID,916.813,VALID,0,VALID,90.7796,VALID,0,VALID,21.3803,VALID,140,VALID,1.39336,
2014-05-24, 02:16:05,VALID,916.823,VALID,0,VALID,90.3985,VALID,0,VALID,21.4388,VALID,148,VALID,1.49609,
2014-05-24, 02:17:05,VALID,916.819,VALID,0,VALID,90.0859,VALID,0,VALID,21.4778,VALID,131,VALID,2.43438,
2014-05-24, 02:18:05,VALID,916.823,VALID,0,VALID,89.781,VALID,0,VALID,21.5559,VALID,140,VALID,1.7875,
2014-05-24, 02:19:05,VALID,916.811,VALID,0,VALID,89.5065,VALID,0,VALID,21.6144,VALID,132,VALID,1.66523,
2014-05-24, 02:20:05,VALID,916.804,VALID,0,VALID,89.2854,VALID,0,VALID,21.6534,VALID,126,VALID,1.49609,
2014-05-24, 02:21:05,VALID,916.828,VALID,0,VALID,89.1635,VALID,0,VALID,21.6339,VALID,144,VALID,1.69297,
2014-05-24, 02:22:05,VALID,916.835,VALID,0,VALID,89.2321,VALID,0,VALID,21.6144,VALID,143,VALID,1.58359,
2014-05-24, 02:23:05,VALID,916.839,VALID,0,VALID,89.3083,VALID,0,VALID,21.6144,VALID,145,VALID,1.53984,
2014-05-24, 02:24:05,VALID,916.849,VALID,0,VALID,89.3007,VALID,0,VALID,21.6339,VALID,136,VALID,1.64492,
2014-05-24, 02:25:05,VALID,916.845,VALID,0,VALID,89.2854,VALID,0,VALID,21.6144,VALID,117,VALID,2.01602,
2014-05-24, 02:26:05,VALID,916.817,VALID,0,VALID,89.1863,VALID,0,VALID,21.6339,VALID,129,VALID,1.04219,
2014-05-24, 02:27:05,VALID,916.824,VALID,0,VALID,89.072,VALID,0,VALID,21.5949,VALID,102,VALID,0.769141,
2014-05-24, 02:28:05,VALID,916.796,VALID,0,VALID,89.5142,VALID,0,VALID,21.5363,VALID,131,VALID,0.958203,
2014-05-24, 02:29:05,VALID,916.79,VALID,0,VALID,89.598,VALID,0,VALID,21.5168,VALID,141,VALID,1.67656,
2014-05-24, 02:30:05,VALID,916.777,VALID,0,VALID,89.4074,VALID,0,VALID,21.5737,VALID,138,VALID,1.71016,
2014-05-24, 02:31:05,VALID,916.778,VALID,0,VALID,89.0567,VALID,0,VALID,21.6339,VALID,118,VALID,1.31406,
2014-05-24, 02:32:05,VALID,916.796,VALID,0,VALID,89.0644,VALID,0,VALID,21.6144,VALID,132,VALID,0.852734,
2014-05-24, 02:33:05,VALID,916.769,VALID,0,VALID,89.133,VALID,0,VALID,21.5949,VALID,140,VALID,0.977344,
2014-05-24, 02:34:05,VALID,916.78,VALID,0,VALID,89.1787,VALID,0,VALID,21.5949,VALID,137,VALID,1.2293,
2014-05-24, 02:35:05,VALID,916.762,VALID,0,VALID,89.0415,VALID,0,VALID,21.6323,VALID,132,VALID,2.19609,
2014-05-24, 02:36:05,VALID,916.771,VALID,0,VALID,88.5155,VALID,0,VALID,21.7493,VALID,107,VALID,1.11133,
2014-05-24, 02:37:05,VALID,916.776,VALID,0,VALID,88.2715,VALID,0.107441,VALID,21.7688,VALID,107,VALID,0.628516,
2014-05-24, 02:38:05,VALID,916.729,VALID,0,VALID,88.2639,VALID,0,VALID,21.7493,VALID,107,VALID,0.577344,
2014-05-24, 02:39:05,VALID,916.736,VALID,0,VALID,88.2639,VALID,0.107441,VALID,21.7493,VALID,107,VALID,0.671875,
2014-05-24, 02:40:05,VALID,916.717,VALID,0,VALID,88.2944,VALID,0,VALID,21.751,VALID,127,VALID,1.2918,
2014-05-24, 02:41:05,VALID,916.675,VALID,0,VALID,88.3706,VALID,0,VALID,21.7315,VALID,130,VALID,0.810938,
2014-05-24, 02:42:05,VALID,916.704,VALID,0,VALID,88.485,VALID,0.107441,VALID,21.712,VALID,136,VALID,1.11133,
2014-05-24, 02:43:05,VALID,916.688,VALID,0,VALID,88.5612,VALID,0.107441,VALID,21.6534,VALID,123,VALID,1.09805,
2014-05-24, 02:44:05,VALID,916.679,VALID,0,VALID,88.7137,VALID,0,VALID,21.6534,VALID,125,VALID,1.16211,
2014-05-24, 02:45:05,VALID,916.626,VALID,0,VALID,88.828,VALID,0,VALID,21.6128,VALID,125,VALID,0.703516,
2014-05-24, 02:46:04,VALID,916.659,VALID,0,VALID,88.9271,VALID,0,VALID,21.5737,VALID,125,VALID,0.547266,
2014-05-24, 02:47:04,VALID,916.64,VALID,0,VALID,88.95,VALID,0,VALID,21.6144,VALID,119,VALID,0.782422,
2014-05-24, 02:48:04,VALID,916.658,VALID,0,VALID,88.8509,VALID,0,VALID,21.6339,VALID,119,VALID,0.911328,
2014-05-24, 02:49:04,VALID,916.667,VALID,0,VALID,88.5841,VALID,0,VALID,21.6908,VALID,126,VALID,0.858203,
2014-05-24, 02:50:04,VALID,916.658,VALID,0,VALID,88.3325,VALID,0.107441,VALID,21.7315,VALID,126,VALID,0.730469,
2014-05-24, 02:51:04,VALID,916.654,VALID,0,VALID,88.2563,VALID,0,VALID,21.7315,VALID,126,VALID,0.817187,
2014-05-24, 02:52:04,VALID,916.686,VALID,0,VALID,88.2258,VALID,0,VALID,21.712,VALID,126,VALID,0.714453,
2014-05-24, 02:53:04,VALID,916.69,VALID,0,VALID,88.3325,VALID,0,VALID,21.6924,VALID,137,VALID,0.861328,
2014-05-24, 02:54:04,VALID,916.668,VALID,0,VALID,88.5155,VALID,0,VALID,21.6534,VALID,137,VALID,0.534375,
2014-05-24, 02:55:04,VALID,916.661,VALID,0,VALID,88.7594,VALID,0,VALID,21.5754,VALID,137,VALID,0.755469,
2014-05-24, 02:56:04,VALID,916.642,VALID,0,VALID,89.0949,VALID,0,VALID,21.5168,VALID,146,VALID,1.03672,
2014-05-24, 02:57:04,VALID,916.662,VALID,0,VALID,89.2854,VALID,0,VALID,21.4778,VALID,159,VALID,1.32109,
2014-05-24, 02:58:04,VALID,916.645,VALID,0,VALID,89.1406,VALID,0,VALID,21.4762,VALID,158,VALID,1.17695,
2014-05-24, 02:59:04,VALID,916.636,VALID,0,VALID,89.1482,VALID,0,VALID,21.4567,VALID,159,VALID,1.49492,
2014-05-24, 03:00:04,VALID,916.596,VALID,0,VALID,89.1711,VALID,0.107441,VALID,21.4973,VALID,160,VALID,1.21484,
2014-05-24, 03:01:04,VALID,916.619,VALID,0,VALID,89.011,VALID,0,VALID,21.5347,VALID,153,VALID,1.2168,
2014-05-24, 03:02:04,VALID,916.589,VALID,0,VALID,88.6756,VALID,0,VALID,21.5737,VALID,164,VALID,1.27578,
2014-05-24, 03:03:04,VALID,916.572,VALID,0,VALID,88.6756,VALID,0,VALID,21.5542,VALID,159,VALID,1.45391,
2014-05-24, 03:04:04,VALID,916.573,VALID,0,VALID,88.8433,VALID,0,VALID,21.5363,VALID,145,VALID,1.39453,
2014-05-24, 03:05:04,VALID,916.579,VALID,0,VALID,88.9271,VALID,0.107441,VALID,21.4957,VALID,158,VALID,1.21992,
2014-05-24, 03:06:04,VALID,916.571,VALID,0,VALID,89.1254,VALID,0,VALID,21.4567,VALID,159,VALID,1.24023,
2014-05-24, 03:07:04,VALID,916.588,VALID,0,VALID,89.1101,VALID,0,VALID,21.4778,VALID,143,VALID,1.55469,
2014-05-24, 03:08:04,VALID,916.59,VALID,0,VALID,88.9348,VALID,0.107441,VALID,21.5347,VALID,146,VALID,1.41914,
2014-05-24, 03:09:04,VALID,916.555,VALID,0,VALID,88.7975,VALID,0.107441,VALID,21.5542,VALID,142,VALID,1.35039,
2014-05-24, 03:10:04,VALID,916.54,VALID,0,VALID,88.7899,VALID,0.107441,VALID,21.5754,VALID,135,VALID,1.07773,
2014-05-24, 03:11:04,VALID,916.548,VALID,0,VALID,88.9119,VALID,0,VALID,21.5559,VALID,143,VALID,0.707031,
2014-05-24, 03:12:04,VALID,916.523,VALID,0,VALID,88.9958,VALID,0,VALID,21.5168,VALID,143,VALID,0.567969,
2014-05-24, 03:13:04,VALID,916.491,VALID,0,VALID,89.0567,VALID,0,VALID,21.4973,VALID,179,VALID,1.08828,
2014-05-24, 03:14:04,VALID,916.492,VALID,0,VALID,89.2092,VALID,0,VALID,21.4372,VALID,184,VALID,0.872656,
2014-05-24, 03:15:04,VALID,916.484,VALID,0,VALID,89.4532,VALID,0.107441,VALID,21.4778,VALID,164,VALID,1.40547,
2014-05-24, 03:16:04,VALID,916.487,VALID,0,VALID,89.3388,VALID,0,VALID,21.4762,VALID,148,VALID,1.03789,
2014-05-24, 03:17:04,VALID,916.518,VALID,0,VALID,89.2854,VALID,0.107441,VALID,21.4583,VALID,160,VALID,1.55508,
2014-05-24, 03:18:04,VALID,916.479,VALID,0,VALID,89.255,VALID,0,VALID,21.4388,VALID,160,VALID,1.02891,
2014-05-24, 03:19:04,VALID,916.461,VALID,0,VALID,89.3083,VALID,0,VALID,21.3981,VALID,165,VALID,1.03594,
2014-05-24, 03:20:04,VALID,916.47,VALID,0,VALID,89.4532,VALID,0.107441,VALID,21.4388,VALID,147,VALID,1.11563,
2014-05-24, 03:21:04,VALID,916.465,VALID,0,VALID,89.3007,VALID,0,VALID,21.4599,VALID,145,VALID,0.816016,
2014-05-24, 03:22:04,VALID,916.441,VALID,0,VALID,89.4303,VALID,0,VALID,21.4177,VALID,164,VALID,0.747266,
2014-05-24, 03:23:04,VALID,916.47,VALID,0,VALID,89.415,VALID,0,VALID,21.4193,VALID,163,VALID,0.469141,
2014-05-24, 03:24:04,VALID,916.465,VALID,0,VALID,89.5828,VALID,0,VALID,21.3998,VALID,163,VALID,0.333594,
2014-05-24, 03:25:04,VALID,916.506,VALID,0,VALID,89.7429,VALID,0,VALID,21.3803,VALID,149,VALID,1.18242,
2014-05-24, 03:26:04,VALID,916.487,VALID,0,VALID,89.6819,VALID,0,VALID,21.3786,VALID,158,VALID,0.916797,
2014-05-24, 03:27:04,VALID,916.51,VALID,0,VALID,89.5599,VALID,0,VALID,21.3998,VALID,161,VALID,0.443359,
2014-05-24, 03:28:04,VALID,916.517,VALID,0,VALID,89.4913,VALID,0.107441,VALID,21.3591,VALID,161,VALID,0.742969,
2014-05-24, 03:29:04,VALID,916.523,VALID,0,VALID,89.5218,VALID,0,VALID,21.3591,VALID,161,VALID,0.665234,
2014-05-24, 03:30:04,VALID,916.515,VALID,0,VALID,89.537,VALID,0,VALID,21.3803,VALID,163,VALID,0.787891,
2014-05-24, 03:31:04,VALID,916.49,VALID,0,VALID,89.476,VALID,0,VALID,21.3803,VALID,162,VALID,0.360938,
2014-05-24, 03:32:04,VALID,916.499,VALID,0,VALID,89.4913,VALID,0,VALID,21.4177,VALID,179,VALID,1.52344,
2014-05-24, 03:33:04,VALID,916.494,VALID,0,VALID,89.133,VALID,0,VALID,21.4372,VALID,123,VALID,0.524219,
2014-05-24, 03:34:04,VALID,916.505,VALID,0,VALID,89.1559,VALID,0,VALID,21.4567,VALID,160,VALID,1.01992,
2014-05-24, 03:35:04,VALID,916.505,VALID,0,VALID,89.1711,VALID,0,VALID,21.4583,VALID,154,VALID,1.25273,
2014-05-24, 03:36:04,VALID,916.488,VALID,0,VALID,89.0872,VALID,0,VALID,21.5168,VALID,162,VALID,0.786719,
2014-05-24, 03:37:04,VALID,916.488,VALID,0,VALID,88.9576,VALID,0,VALID,21.5152,VALID,159,VALID,0.930078,
2014-05-24, 03:38:04,VALID,916.495,VALID,0,VALID,88.8738,VALID,0,VALID,21.5754,VALID,140,VALID,0.897656,
2014-05-24, 03:39:04,VALID,916.53,VALID,0,VALID,88.7671,VALID,0,VALID,21.5542,VALID,135,VALID,0.985937,
2014-05-24, 03:40:04,VALID,916.524,VALID,0,VALID,88.7899,VALID,0,VALID,21.5559,VALID,124,VALID,1.31094,
2014-05-24, 03:41:04,VALID,916.542,VALID,0,VALID,88.7518,VALID,0.107441,VALID,21.5559,VALID,124,VALID,1.14141,
2014-05-24, 03:42:04,VALID,916.533,VALID,0,VALID,88.8662,VALID,0,VALID,21.5347,VALID,115,VALID,1.18203,
2014-05-24, 03:43:04,VALID,916.526,VALID,0,VALID,88.9271,VALID,0,VALID,21.5152,VALID,127,VALID,1.45078,